Home   Weather   Tulsa   Past weeks
Flag for USA

Past Weather in Tulsa, Oklahoma, USA — Yesterday and Last 2 Weeks

Now
43 °F

Low clouds.


Feels Like: 38 °F
Forecast: 52 / 39 °F
Wind: 8 mph from North

Location: Tulsa International Airport

Current Time: Jan 17, 2019 at 11:20:19 am

Latest Report: Jan 17, 2019 at 10:34 am


Visibility: 10 mi

Pressure: 30.16 "Hg

Humidity: 93%

Dew Point: 41 °F

Location of TulsaLocation

Past Weather in Tulsa — Graph

°F

Tulsa Temperature Yesterday

Maximum temperature yesterday: 50 °F (at 1:53 pm)
Minimum temperature yesterday: 43 °F (at 12:53 am)
Average temperature yesterday: 46 °F

High & Low Weather Summary for the Past Weeks

 TemperatureHumidityPressure
High69 °F (Jan 7, 2:53 pm)100% (Jan 17, 12:08 am)30.62 "Hg (Jan 17, 12:08 am)
Low26 °F (Jan 10, 4:53 am)30% (Jan 9, 3:53 pm)29.74 "Hg (Jan 7, 4:53 am)
Average41 °F76%30.14 "Hg
* Reported Jan 2 9:53 am — Jan 17 9:53 am, Tulsa. Weather by CustomWeather, © 2019

Note: Actual official high and low records may vary slightly from our data, if they occured in-between our weather recording intervals... More about our weather records

Advertising

Tulsa Weather History for the Previous 24 Hours

Scroll right to see more
 ConditionsComfort  
Time TempWeatherWind HumidityBarometerVisibility
9:53 am
Thu, Jan 17
43 °FOvercast.9 mph89%30.15 "Hg10 mi
9:18 am43 °FMostly cloudy.8 mph89%30.12 "Hg10 mi
8:58 am43 °FMostly cloudy.10 mph93%30.12 "Hg10 mi
7:53 am45 °FLow clouds.16 mph97%30.07 "Hg10 mi
6:53 am46 °FLow clouds.10 mph96%30.04 "Hg9 mi
6:32 am46 °FDrizzle. Fog.8 mph96%30.03 "Hg5 mi
5:53 am46 °FDrizzle. Fog.10 mph96%30.02 "Hg6 mi
4:53 am46 °FDrizzle. Fog.8 mph96%29.99 "Hg5 mi
4:36 am46 °FDrizzle. Fog.9 mph96%29.99 "Hg6 mi
4:24 am46 °FLow clouds.7 mph96%29.99 "Hg7 mi
3:53 am46 °FDrizzle. Low clouds.6 mph96%29.98 "Hg7 mi
2:53 am47 °FDrizzle. Fog.8 mph93%29.98 "Hg4 mi
1:53 am47 °FLight rain. Fog.3 mph97%29.97 "Hg1 mi
12:53 am48 °FDrizzle. Fog.No wind96%29.98 "Hg2 mi
12:08 am47 °FDrizzle. Fog.6 mph100%29.98 "Hg2 mi
11:53 pm
Wed, Jan 16
47 °FDrizzle. Fog.5 mph97%29.99 "Hg2 mi
11:21 pm47 °FDrizzle. Fog.6 mph97%30.00 "Hg1 mi
11:09 pm47 °FDrizzle. Fog.5 mph97%30.00 "Hg1 mi
10:53 pm47 °FDrizzle. Fog.5 mph97%30.00 "Hg1 mi
9:53 pm47 °FDrizzle. Fog.3 mph97%30.01 "Hg2 mi
9:34 pm47 °FDrizzle. Fog.7 mph97%30.01 "Hg2 mi
9:02 pm47 °FDrizzle. Fog.No wind97%30.02 "Hg3 mi
8:53 pm47 °FDrizzle. Fog.No wind97%30.02 "Hg2 mi
8:26 pm46 °FDrizzle. Fog.7 mph96%30.01 "Hg2 mi
8:03 pm46 °FDrizzle. Fog.5 mph96%30.03 "Hg1 mi
7:53 pm46 °FDrizzle. Fog.5 mph96%30.03 "Hg2 mi
7:21 pm47 °FDrizzle. Fog.6 mph93%30.03 "Hg2 mi
7:03 pm47 °FDrizzle. Fog.6 mph93%30.03 "Hg2 mi
5:53 pm47 °FDrizzle. Fog.8 mph93%30.01 "Hg2 mi
5:40 pm47 °FDrizzle. Fog.9 mph93%30.01 "Hg2 mi
5:23 pm47 °FDrizzle. Fog.9 mph93%30.02 "Hg2 mi
4:53 pm49 °FOvercast.13 mph80%30.02 "Hg8 mi
4:24 pm49 °FOvercast.15 mph80%30.03 "Hg8 mi
3:53 pm50 °FOvercast.13 mph77%30.03 "Hg9 mi
2:53 pm50 °FOvercast.16 mph74%30.04 "Hg10 mi
1:53 pm50 °FOvercast.10 mph71%30.04 "Hg10 mi
12:53 pm48 °FOvercast.12 mph77%30.09 "Hg9 mi
11:53 am47 °FOvercast.9 mph77%30.14 "Hg8 mi
Weather by CustomWeather, © 2019

See weather overview